Location: Zagreb
(45.8000°N, 16.0000°E)
Time: 15:46:40
(UTC+02:00)

Transit 2A - Pass Details

Date: 14 August 2022
Orbit: 601 x 956 km, 66.7° (Epoch: 25 September)

Event Time Altitude Azimuth Distance (km) Brightness Sun altitude
Rises 21:03:26 0° 320° (NW) 2,862 10.6 -9.8°
Reaches altitude 10° 21:05:45 10° 313° (NW) 1,965 9.7 -10.1°
Maximum altitude 21:09:51 40° 244° (WSW) 923 6.7 -10.7°
Drops below altitude 10° 21:14:09 10° 175° (S) 2,058 7.9 -11.3°
Enters shadow 21:15:15 - 171° (S) 2,479 8.2 -11.5°
Sets 21:16:37 0° 168° (SSE) 3,014 - -11.7°
